sat.trackr.live / text

‹ back to catalog

VNREDSAT 1

NORAD 39160 · 2013-021B

PAYLOAD ACTIVE UNKNOWN

§ Identity

Operator
Country
VTNM
Launch date
2013-05-07
Launch site
FRGUI
Launch vehicle
Mass (kg)
RCS (m²)
0.74

Purposes: earth_obs

External: N2YO · Heavens-Above · Gunter

§ Orbital elements

Epoch: 2026-09-14T21:58:24.010752Z

Period
98.31 min
Inclination
97.8993°
Eccentricity
0.0001254
Mean motion
14.64743798 rev/d
Perigee alt
677.0 km
Apogee alt
678.8 km
Semi-major
7,056.0 km
B*
4.2745e-5
RAAN
307.8388°
Arg perigee
82.5181°
Mean anomaly
277.6165°
Rev number
71,342

§ Raw data

VNREDSAT 11 39160U 13021B   26257.91555568  .00000183  00000+0  42745-4 0  99992 39160  97.8993 307.8388 0001254  82.5181 277.6165 14.64743798713424

JSON: /api/v1/satellites/39160 · /tle

For live sub-satellite position, see the globe view (requires WebGL).

§ Visibility from observer

Set your observer location to see the next 7 days of passes ≥ 10°. The values pass through the URL so the page stays shareable.

No JS? Fill the form by hand. The geolocation button needs JavaScript.